Regional Weather Roundup
Issued by NWS

Home | Current Version | Previous Version | Graphics & Text | Print | Product List | Glossary On
Versions: 1 2 3 4 5 6 7 8 9 10 11 12 13 14 15 16 17 18 19 20 21 22 23 24 25 26 27 28 29 30 31 32 33 34 35 36 37 38 39 40 41 42 43 44 45 46 47 48 49 50
000
ASUS43 KLOT 101502
RWRIL

ILLINOIS REGIONAL WEATHER ROUNDUP
NATIONAL WEATHER SERVICE CHICAGO/ROMEOVILLE IL
900 AM CST SAT DEC 10 2016

NOTE: "FAIR" INDICATES FEW OR NO CLOUDS BELOW 12,000 FEET WITH NO
SIGNIFICANT WEATHER AND/OR OBSTRUCTIONS TO VISIBILITY.

* THESE STATIONS ARE NOT UNDER NWS QUALITY CONTROL. THEY ALSO MAY NOT
  REPORT WEATHER SUCH AS PRECIPITATION OR FOG.

ILZ001-002-007-009-015-016-024-101600-
NORTHWEST ILLINOIS

CITY           SKY/WX    TMP DP  RH WIND       PRES   REMARKS
MOLINE         CLOUDY    23  15  71 SW6       30.53S WCI  16
STERLING*      CLOUDY    21  15  78 SW6       30.54R WCI  13
SAVANNA*       CLOUDY    21  15  77 W3        30.53S
$$

ILZ003-004-008-010-011-017-018-101600-
NORTH CENTRAL ILLINOIS

CITY           SKY/WX    TMP DP  RH WIND       PRES   REMARKS
ROCKFORD       CLOUDY    20  14  77 W8        30.54R WCI  10
FREEPORT*      CLOUDY    18  14  86 W5        30.53R WCI  11
ROCHELLE*      CLOUDY    17  14  89 SW5       30.53R WCI   9
$$

ILZ005-006-012>014-019>023-101600-
NORTHEAST ILLINOIS

CITY           SKY/WX    TMP DP  RH WIND       PRES   REMARKS
CHICAGO-OHARE  PTSUNNY   19  13  77 W10       30.52R WCI   7
CHICAGO-MIDWAY PTSUNNY   21  12  68 W9        30.53R WCI  11
AURORA         PTSUNNY   20  14  77 W5        30.53S WCI  13
LANSING*       CLOUDY    21  16  81 W7        30.54S WCI  12
WAUKEGAN       PTSUNNY   19  14  81 VRB5      30.50R WCI  12
DUPAGE AIRPORT MOSUNNY   19  12  74 W8        30.52S WCI   9
KANKAKEE*      CLOUDY    22  15  75 CALM      30.55F
WHEELING       CLOUDY    19  12  74 W7        30.53R WCI  10
MORRIS*        CLOUDY    21  15  77 W6        30.54S WCI  14
NORTHERLY ISL    N/A     21  14  74 SW6         N/A  WCI  14
$$

LMZ740>746-101600-
SOUTHERN LAKE MICHIGAN

STATION/POSITION SKY/WX   TEMP    WIND        PRES    VSBY  WAVE
                          AIR SEA DIR/SP/G                  HT/PER
                          (F)     (DEG/KT/KT) (MB)    (MI)  (FT/S)
BURNHAM HARBOR             21     300/  3/ 10   N/A
CALUMET HARBOR             20     230/  6/ 10 1033.2R
BURNS HARBOR               23     260/ 15/ 18 1033.9R
$$

ILZ025>027-034>036-040-047-049-050-058-095>099-101600-
WEST-CENTRAL ILLINOIS

CITY           SKY/WX    TMP DP  RH WIND       PRES   REMARKS
QUINCY         CLOUDY    25  14  63 SE9       30.52S WCI  15
GALESBURG*     CLOUDY    22  17  79 S3        30.53S
MACOMB*        CLOUDY    24  18  77 S7        30.55F WCI  16
JACKSONVILLE*  CLOUDY    24  16  70 SE5       30.56S WCI  18
PITTSFIELD*    CLOUDY    26  19  77 SE7       30.55R WCI  18
$$

ILZ028>032-037-038-041>044-048-051>054-059>061-101600-
CENTRAL ILLINOIS

CITY           SKY/WX    TMP DP  RH WIND       PRES   REMARKS
PONTIAC        CLOUDY    23  15  71 SW7       30.57R WCI  15
BLOOMINGTON    CLOUDY    21  15  78 W7        30.54S WCI  12
DECATUR        CLOUDY    23  15  71 SW6       30.57R WCI  16
PEORIA         CLOUDY    23  15  71 SW6       30.56S WCI  16
LACON*         CLOUDY    23  15  71 SW5       30.55F WCI  16
LINCOLN*       CLOUDY    24  17  74 S3        30.57S
SPRINGFIELD    CLOUDY    25  16  68 SW3       30.57F
TAYLORVILLE    CLOUDY    24  18  78 CALM      30.57F
$$

ILZ033-039-045-046-055>057-062-063-101600-
EAST-CENTRAL ILLINOIS

CITY           SKY/WX    TMP DP  RH WIND       PRES   REMARKS
CHAMPAIGN      CLOUDY    24  15  68 SW9       30.58R WCI  14
RANTOUL*       CLOUDY    25  18  74 W9        30.57R WCI  15
MATTOON        CLOUDY    23  16  74 CALM      30.56R
PARIS*         CLOUDY    24  18  78 W3        30.59R
$$

ILZ079-100>102-101600-
SOUTHWEST ILLINOIS

CITY           SKY/WX    TMP DP  RH WIND       PRES   REMARKS
ALTON          CLOUDY    27  16  63 SE6       30.57F WCI  20
BELLEVILLE     CLOUDY    28  19  67 SE6       30.57S WCI  22
CAHOKIA*       CLOUDY    28  17  63 SE5       30.58S WCI  23
SPARTA*        MOSUNNY   26  19  74 S5        30.59S WCI  21
$$

ILZ064>066-069>071-074>076-080>082-084>086-088>090-092>094-101600-
SOUTH-CENTRAL ILLINOIS

CITY           SKY/WX    TMP DP  RH WIND       PRES   REMARKS
CARBONDALE     CLOUDY    26  19  74 S6        30.59F WCI  19
CAIRO*         MOSUNNY   26  22  87 CALM      30.61F
EFFINGHAM*     CLOUDY    26  20  77 SW3       30.60S
MARION         PTSUNNY   28  21  74 S5        30.61R WCI  23
CENTRALIA*     CLOUDY    27  20  75 CALM      30.58S
SALEM*         CLOUDY    27  20  73 S3        30.59S
METROPOLIS*    SUNNY     26  23  90 CALM      30.62S
$$

ILZ067-068-072-073-078-083-087-091-101600-
SOUTHEAST ILLINOIS

CITY           SKY/WX    TMP DP  RH WIND       PRES   REMARKS
LAWRENCEVILLE  CLOUDY    25  17  72 W6        30.61R WCI  18
FLORA*         CLOUDY    27  19  71 CALM      30.60S
FAIRFIELD*     CLOUDY    26  21  80 CALM      30.60R
HARRISBURG*    CLOUDY    27  22  82 CALM      30.62R
ROBINSON*      CLOUDY    24  17  75 SW5       30.61R WCI  18
CARMI*         CLOUDY    27  21  79 SW3       30.61R
$$

ABBREVIATIONS USED IN REMARKS
   TC - TEMPERATURE IN CELSIUS
  WCI - WIND CHILL INDEX
   HX - HEAT INDEX
  VSB - VISIBILITY
$$




USA.gov is the U.S. government's official web portal to all federal, state and local government web resources and services.